Time,TemperatureF,DewpointF,PressureIn,WindDirection,WindDirectionDegrees,WindSpeedMPH,WindSpeedGustMPH,Humidity,HourlyPrecipIn,Conditions,Clouds,dailyrainin,SoftwareType,DateUTC
2013-12-24 00:22:00,40.0,40.0,30.02,NNW,347,3.0,7.0,100,0.00,,,0.86,,2013-12-24 05:22:00,
2013-12-24 00:31:00,41.0,41.0,30.03,North,356,7.0,13.0,99,0.00,,,0.43,,2013-12-24 05:31:00,
2013-12-24 00:43:00,41.0,41.0,30.03,NNW,347,4.0,13.0,100,0.00,,,0.43,,2013-12-24 05:43:00,
2013-12-24 00:53:00,41.0,41.0,30.03,North,356,7.0,13.0,99,0.00,,,0.43,,2013-12-24 05:53:00,
2013-12-24 01:03:00,41.0,41.0,30.03,North,356,7.0,13.0,99,0.00,,,0.43,,2013-12-24 06:03:00,
2013-12-24 01:12:00,41.0,41.0,30.03,North,356,7.0,13.0,99,0.00,,,0.43,,2013-12-24 06:12:00,
2013-12-24 01:22:00,41.0,41.0,30.03,North,356,7.0,13.0,99,0.00,,,0.43,,2013-12-24 06:22:00,
2013-12-24 01:52:00,40.0,40.0,30.02,North,354,8.0,15.0,99,0.01,,,0.46,,2013-12-24 06:52:00,
2013-12-24 02:02:00,40.0,40.0,30.02,North,354,8.0,15.0,99,0.01,,,0.46,,2013-12-24 07:02:00,
2013-12-24 02:22:00,40.0,39.0,30.04,North,354,9.0,18.0,98,0.00,,,0.49,,2013-12-24 07:22:00,
2013-12-24 02:42:00,40.0,39.0,30.03,North,349,8.0,18.0,97,0.01,,,0.50,,2013-12-24 07:42:00,
2013-12-24 02:52:00,39.0,38.0,30.04,NNW,348,10.0,20.0,97,0.02,,,0.51,,2013-12-24 07:52:00,
2013-12-24 03:02:00,39.0,38.0,30.04,NNW,348,10.0,20.0,97,0.02,,,0.51,,2013-12-24 08:02:00,
2013-12-24 03:22:00,40.0,39.0,30.06,North,1,9.0,20.0,97,0.00,,,0.54,,2013-12-24 08:22:00,
2013-12-24 03:42:00,40.0,39.0,30.05,North,354,9.0,18.0,97,0.00,,,0.54,,2013-12-24 08:42:00,
2013-12-24 03:52:00,40.0,39.0,30.05,North,356,7.0,20.0,97,0.01,,,0.55,,2013-12-24 08:52:00,
2013-12-24 04:02:00,40.0,39.0,30.05,North,356,7.0,20.0,97,0.01,,,0.55,,2013-12-24 09:02:00,
2013-12-24 04:22:00,40.0,39.0,30.05,North,357,7.0,16.0,97,0.01,,,0.58,,2013-12-24 09:22:00,
2013-12-24 04:43:00,40.0,39.0,30.04,North,0,7.0,17.0,97,0.01,,,0.58,,2013-12-24 09:43:00,
2013-12-24 04:53:00,40.0,39.0,30.04,North,0,7.0,17.0,97,0.01,,,0.58,,2013-12-24 09:53:00,
2013-12-24 05:03:00,40.0,39.0,30.04,North,0,7.0,17.0,97,0.01,,,0.58,,2013-12-24 10:03:00,
2013-12-24 05:23:00,39.0,37.0,30.05,NNW,345,7.0,17.0,94,0.00,,,0.59,,2013-12-24 10:23:00,
2013-12-24 05:43:00,38.0,36.0,30.04,NNW,347,8.0,18.0,93,0.00,,,0.59,,2013-12-24 10:43:00,
2013-12-24 05:53:00,38.0,36.0,30.04,NNW,347,8.0,18.0,93,0.00,,,0.59,,2013-12-24 10:53:00,
2013-12-24 06:02:00,38.0,36.0,30.04,NNW,347,8.0,18.0,93,0.00,,,0.59,,2013-12-24 11:02:00,
2013-12-24 06:22:00,38.0,35.0,30.06,North,352,11.0,21.0,89,0.00,,,0.58,,2013-12-24 11:22:00,
2013-12-24 06:33:00,38.0,35.0,30.06,North,352,11.0,21.0,89,0.00,,,0.58,,2013-12-24 11:33:00,
2013-12-24 06:42:00,38.0,35.0,30.06,North,352,11.0,21.0,89,0.00,,,0.58,,2013-12-24 11:42:00,
2013-12-24 06:52:00,38.0,34.0,30.04,North,8,7.0,20.0,86,0.00,,,0.58,,2013-12-24 11:52:00,
2013-12-24 07:02:00,38.0,34.0,30.04,North,8,7.0,20.0,86,0.00,,,0.58,,2013-12-24 12:02:00,
2013-12-24 07:11:00,38.0,34.0,30.04,North,8,7.0,20.0,86,0.00,,,0.58,,2013-12-24 12:11:00,
2013-12-24 07:22:00,38.0,35.0,30.06,North,357,6.0,17.0,88,0.00,,,0.58,,2013-12-24 12:22:00,
2013-12-24 07:42:00,38.0,35.0,30.07,North,354,5.0,15.0,88,0.00,,,0.58,,2013-12-24 12:42:00,
2013-12-24 07:52:00,38.0,34.0,30.07,North,355,8.0,17.0,86,0.00,,,0.58,,2013-12-24 12:52:00,
2013-12-24 08:22:00,37.0,33.0,30.07,North,352,11.0,18.0,86,0.00,,,0.58,,2013-12-24 13:22:00,
2013-12-24 08:32:00,37.0,33.0,30.07,North,352,11.0,18.0,86,0.00,,,0.58,,2013-12-24 13:32:00,
2013-12-24 08:42:00,37.0,33.0,30.07,North,352,11.0,18.0,86,0.00,,,0.58,,2013-12-24 13:42:00,
2013-12-24 08:52:00,37.0,32.0,30.03,North,356,6.0,19.0,83,0.00,,,0.58,,2013-12-24 13:52:00,
2013-12-24 09:02:00,37.0,32.0,30.03,North,356,6.0,19.0,83,0.00,,,0.58,,2013-12-24 14:02:00,
2013-12-24 09:22:00,37.0,32.0,30.10,North,354,7.0,15.0,83,0.00,,,0.58,,2013-12-24 14:22:00,
2013-12-24 09:33:00,37.0,32.0,30.10,North,354,7.0,15.0,83,0.00,,,0.58,,2013-12-24 14:33:00,
2013-12-24 09:42:00,37.0,32.0,30.10,North,354,7.0,15.0,83,0.00,,,0.58,,2013-12-24 14:42:00,
2013-12-24 09:52:00,37.0,32.0,30.08,North,2,8.0,17.0,81,0.00,,,0.58,,2013-12-24 14:52:00,
2013-12-24 10:22:00,37.0,30.0,30.00,North,4,7.0,20.0,76,0.00,,,0.57,,2013-12-24 15:22:00,
2013-12-24 10:54:00,36.0,30.0,30.05,North,0,8.0,17.0,79,0.00,,,0.57,,2013-12-24 15:54:00,
2013-12-24 11:23:00,36.0,30.0,30.05,North,355,9.0,22.0,79,0.00,,,0.57,,2013-12-24 16:23:00,
2013-12-24 11:43:00,36.0,30.0,30.02,North,349,12.0,21.0,80,0.00,,,0.56,,2013-12-24 16:43:00,
2013-12-24 11:53:00,35.0,29.0,30.01,North,0,7.0,21.0,80,0.00,,,0.55,,2013-12-24 16:53:00,
2013-12-24 12:22:00,35.0,29.0,30.03,North,3,3.0,15.0,79,0.00,,,0.52,,2013-12-24 17:22:00,
2013-12-24 12:42:00,35.0,29.0,30.02,NNE,13,8.0,19.0,78,0.00,,,0.51,,2013-12-24 17:42:00,
2013-12-24 12:52:00,35.0,29.0,30.02,North,1,6.0,18.0,78,0.00,,,0.49,,2013-12-24 17:52:00,
2013-12-24 13:02:00,35.0,29.0,30.02,North,1,6.0,18.0,78,0.00,,,0.49,,2013-12-24 18:02:00,
2013-12-24 13:12:00,35.0,29.0,30.02,North,1,6.0,18.0,78,0.00,,,0.49,,2013-12-24 18:12:00,
2013-12-24 13:22:00,35.0,29.0,29.99,North,3,6.0,16.0,80,0.00,,,0.46,,2013-12-24 18:22:00,
2013-12-24 13:52:00,35.0,30.0,29.98,North,5,5.0,15.0,82,0.00,,,0.46,,2013-12-24 18:52:00,
2013-12-24 14:22:00,35.0,30.0,29.98,North,356,8.0,17.0,82,0.00,,,0.46,,2013-12-24 19:22:00,
2013-12-24 14:42:00,35.0,30.0,29.99,North,350,8.0,17.0,83,0.00,,,0.46,,2013-12-24 19:42:00,
2013-12-24 14:52:00,35.0,30.0,29.99,North,5,10.0,17.0,82,0.00,,,0.44,,2013-12-24 19:52:00,
2013-12-24 15:22:00,35.0,30.0,29.99,NNW,344,10.0,25.0,83,0.00,,,0.44,,2013-12-24 20:22:00,
2013-12-24 15:41:00,34.0,29.0,30.01,NNW,348,7.0,22.0,83,0.00,,,0.43,,2013-12-24 20:41:00,
2013-12-24 15:42:00,34.0,29.0,30.00,North,4,8.0,20.0,81,0.00,,,0.44,,2013-12-24 20:42:00,
2013-12-24 15:52:00,34.0,29.0,30.01,North,349,9.0,23.0,81,0.00,,,0.44,,2013-12-24 20:52:00,
2013-12-24 16:11:00,34.0,29.0,30.01,NNW,348,7.0,22.0,83,0.00,,,0.43,,2013-12-24 21:11:00,
2013-12-24 16:22:00,34.0,29.0,30.01,NNW,348,7.0,22.0,83,0.00,,,0.43,,2013-12-24 21:22:00,
2013-12-24 16:33:00,34.0,29.0,30.01,NNW,348,7.0,22.0,83,0.00,,,0.43,,2013-12-24 21:33:00,
2013-12-24 16:53:00,34.0,29.0,30.04,NNW,338,10.0,18.0,83,0.00,,,0.42,,2013-12-24 21:53:00,
2013-12-24 17:13:00,34.0,28.0,30.04,North,351,8.0,17.0,80,0.00,,,0.41,,2013-12-24 22:13:00,
2013-12-24 17:23:00,34.0,28.0,30.04,North,351,8.0,17.0,80,0.00,,,0.41,,2013-12-24 22:23:00,
2013-12-24 17:31:00,34.0,28.0,30.06,North,352,6.0,13.0,78,0.00,,,0.32,,2013-12-24 22:31:00,
2013-12-24 17:33:00,34.0,28.0,30.04,North,351,8.0,17.0,80,0.00,,,0.41,,2013-12-24 22:33:00,
2013-12-24 17:53:00,34.0,28.0,30.06,North,352,6.0,13.0,78,0.00,,,0.32,,2013-12-24 22:53:00,
2013-12-24 18:02:00,34.0,28.0,30.06,North,352,6.0,13.0,78,0.00,,,0.32,,2013-12-24 23:02:00,
2013-12-24 18:12:00,34.0,28.0,30.06,North,352,6.0,13.0,78,0.00,,,0.32,,2013-12-24 23:12:00,
2013-12-24 18:22:00,34.0,28.0,30.06,North,352,6.0,13.0,78,0.00,,,0.32,,2013-12-24 23:22:00,
2013-12-24 18:53:00,34.0,26.0,30.08,North,354,4.0,13.0,71,0.00,,,0.26,,2013-12-24 23:53:00,
2013-12-24 19:11:00,34.0,25.0,30.09,North,355,5.0,13.0,69,0.00,,,0.25,,2013-12-25 00:11:00,
2013-12-24 19:22:00,34.0,26.0,30.09,North,350,7.0,16.0,72,0.00,,,0.25,,2013-12-25 00:22:00,
2013-12-24 19:52:00,34.0,23.0,30.09,North,354,5.0,19.0,64,0.00,,,0.22,,2013-12-25 00:52:00,
2013-12-24 20:22:00,34.0,22.0,30.10,North,359,10.0,19.0,61,0.00,,,0.19,,2013-12-25 01:22:00,
2013-12-24 20:42:00,33.0,23.0,30.11,NNW,339,6.0,21.0,65,0.00,,,0.19,,2013-12-25 01:42:00,
2013-12-24 20:52:00,33.0,24.0,30.12,NNW,343,7.0,20.0,68,0.00,,,0.19,,2013-12-25 01:52:00,
2013-12-24 21:22:00,32.0,26.0,30.13,NNW,348,6.0,17.0,77,0.00,,,0.18,,2013-12-25 02:22:00,
2013-12-24 21:53:00,31.0,27.0,30.14,NNW,336,3.0,12.0,84,0.00,,,0.17,,2013-12-25 02:53:00,
2013-12-24 22:22:00,30.0,27.0,30.15,WNW,284,2.0,11.0,88,0.00,,,0.17,,2013-12-25 03:22:00,
2013-12-24 22:43:00,29.0,26.0,30.15,WNW,294,2.0,13.0,90,0.00,,,0.17,,2013-12-25 03:43:00,
2013-12-24 22:53:00,29.0,26.0,30.15,NW,311,6.0,10.0,89,0.00,,,0.17,,2013-12-25 03:53:00,
2013-12-24 23:23:00,30.0,25.0,30.15,NW,313,6.0,12.0,81,0.00,,,0.17,,2013-12-25 04:23:00,
2013-12-24 23:43:00,30.0,24.0,30.15,NW,316,5.0,13.0,77,0.00,,,0.17,,2013-12-25 04:43:00,
2013-12-24 23:53:00,30.0,24.0,30.15,NW,316,5.0,13.0,77,0.00,,,0.17,,2013-12-25 04:53:00,